| time (UTC) | temp C | wind direction | speed KPH | gust KPH | rain 1hr cm | rain 24hr cm | rain mn cm | humidity % | barometer mb |
| 20260507150017 | 22 | 360 | 0.0 | 0.0 | 0.00 | 0.00 | 0.03 | 41 | 1011.5 |
| 20260507144518 | 22 | 360 | 0.0 | 0.0 | 0.00 | 0.00 | 0.03 | 42 | 1011.5 |
| 20260507143005 | 22 | 360 | 0.0 | 0.0 | 0.00 | 0.00 | 0.03 | 43 | 1011.7 |
| 20260507141505 | 22 | 360 | 0.0 | 0.0 | 0.00 | 0.00 | 0.03 | 43 | 1011.7 |
| 20260507140004 | 22 | 360 | 1.6 | 0.0 | 0.00 | 0.00 | 0.03 | 46 | 1011.7 |
| 20260507134507 | 22 | 360 | 1.6 | 0.0 | 0.00 | 0.00 | 0.03 | 42 | 1011.6 |
| 20260507133003 | 22 | 360 | 1.6 | 0.0 | 0.00 | 0.00 | 0.03 | 44 | 1011.7 |
| 20260507131502 | 22 | 360 | 1.6 | 0.0 | 0.00 | 0.00 | 0.03 | 44 | 1011.8 |
| 20260507130002 | 22 | 360 | 3.2 | 0.0 | 0.00 | 0.00 | 0.03 | 45 | 1011.8 |
| 20260507124504 | 22 | 360 | 1.6 | 0.0 | 0.00 | 0.00 | 0.03 | 45 | 1011.8 |
| 20260507123101 | 22 | 360 | 1.6 | 0.0 | 0.00 | 0.00 | 0.03 | 43 | 1011.8 |
| 20260507121621 | 22 | 360 | 1.6 | 0.0 | 0.00 | 0.00 | 0.03 | 43 | 1011.8 |
| 20260507120109 | 22 | 360 | 1.6 | 0.0 | 0.00 | 0.00 | 0.03 | 48 | 1011.9 |
| 20260507114639 | 22 | 360 | 1.6 | 0.0 | 0.00 | 0.00 | 0.03 | 45 | 1012.1 |
| 20260507113059 | 22 | 360 | 1.6 | 0.0 | 0.00 | 0.00 | 0.03 | 43 | 1012.2 |
| 20260507111600 | 21 | 360 | 1.6 | 0.0 | 0.00 | 0.00 | 0.03 | 46 | 1012.3 |
| 20260507110056 | 21 | 360 | 1.6 | 0.0 | 0.00 | 0.00 | 0.03 | 45 | 1012.4 |
| 20260507104553 | 21 | 360 | 1.6 | 0.0 | 0.00 | 0.00 | 0.03 | 44 | 1012.6 |
| 20260507103050 | 21 | 360 | 1.6 | 0.0 | 0.00 | 0.00 | 0.03 | 47 | 1012.8 |
| 20260507101550 | 21 | 360 | 1.6 | 0.0 | 0.00 | 0.00 | 0.03 | 49 | 1012.9 |
| 20260507100048 | 21 | 360 | 1.6 | 0.0 | 0.00 | 0.00 | 0.03 | 48 | 1013.0 |
| 20260507094544 | 21 | 360 | 1.6 | 0.0 | 0.00 | 0.00 | 0.03 | 48 | 1013.0 |
| 20260507093047 | 21 | 360 | 1.6 | 0.0 | 0.00 | 0.00 | 0.03 | 50 | 1013.0 |
| 20260507091544 | 20 | 360 | 0.0 | 0.0 | 0.00 | 0.00 | 0.03 | 55 | 1013.0 |
| 20260507090038 | 20 | 360 | 1.6 | 0.0 | 0.00 | 0.00 | 0.03 | 58 | 1013.1 |
| 20260507084532 | 19 | 360 | 1.6 | 0.0 | 0.00 | 0.00 | 0.03 | 56 | 1012.9 |
| 20260507083032 | 19 | 360 | 1.6 | 0.0 | 0.00 | 0.00 | 0.03 | 57 | 1012.8 |
| 20260507081525 | 19 | 360 | 0.0 | 0.0 | 0.00 | 0.00 | 0.03 | 57 | 1012.8 |
| 20260507080024 | 18 | 360 | 0.0 | 0.0 | 0.00 | 0.00 | 0.03 | 60 | 1012.8 |
| 20260507074520 | 18 | 360 | 0.0 | 0.0 | 0.00 | 0.00 | 0.03 | 63 | 1012.8 |
| 20260507073015 | 18 | 360 | 0.0 | 0.0 | 0.00 | 0.00 | 0.03 | 61 | 1012.7 |
| 20260507071511 | 17 | 360 | 0.0 | 0.0 | 0.00 | 0.00 | 0.03 | 61 | 1012.7 |
| 20260507070012 | 17 | 360 | 1.6 | 0.0 | 0.00 | 0.00 | 0.03 | 60 | 1012.6 |
| 20260507064505 | 17 | 360 | 0.0 | 0.0 | 0.00 | 0.00 | 0.03 | 61 | 1012.5 |
| 20260507063106 | 17 | 360 | 0.0 | 0.0 | 0.00 | 0.00 | 0.03 | 61 | 1012.3 |
| 20260507061556 | 16 | 360 | 0.0 | 0.0 | 0.00 | 0.00 | 0.03 | 69 | 1012.3 |
| 20260507060052 | 15 | 360 | 0.0 | 0.0 | 0.00 | 0.00 | 0.03 | 74 | 1012.2 |
| 20260507054548 | 13 | 360 | 0.0 | 0.0 | 0.00 | 0.00 | 0.03 | 82 | 1012.0 |
| 20260507053043 | 12 | 360 | 0.0 | 0.0 | 0.00 | 0.00 | 0.03 | 90 | 1011.8 |
| 20260507051541 | 10 | 360 | 0.0 | 0.0 | 0.00 | 0.00 | 0.03 | 91 | 1011.6 |
| 20260507050038 | 10 | 360 | 0.0 | 0.0 | 0.00 | 0.00 | 0.03 | 91 | 1011.4 |
| 20260507044536 | 10 | 360 | 0.0 | 0.0 | 0.00 | 0.00 | 0.00 | 90 | 1011.2 |
| 20260507043034 | 10 | 360 | 0.0 | 0.0 | 0.00 | 0.00 | 0.00 | 90 | 1011.2 |
| 20260507041531 | 10 | 360 | 0.0 | 0.0 | 0.00 | 0.00 | 0.00 | 89 | 1011.1 |
| 20260507040030 | 10 | 360 | 0.0 | 0.0 | 0.00 | 0.00 | 0.00 | 89 | 1010.8 |
| 20260507034529 | 10 | 360 | 0.0 | 0.0 | 0.00 | 0.00 | 0.00 | 88 | 1010.8 |
| 20260507033030 | 10 | 360 | 0.0 | 0.0 | 0.00 | 0.00 | 0.00 | 87 | 1010.6 |
| 20260507031526 | 10 | 360 | 0.0 | 0.0 | 0.00 | 0.00 | 0.00 | 86 | 1010.6 |
| 20260507030025 | 10 | 360 | 0.0 | 0.0 | 0.00 | 0.00 | 0.00 | 86 | 1010.6 |
| 20260507024523 | 10 | 360 | 0.0 | 0.0 | 0.00 | 0.00 | 0.00 | 85 | 1010.6 |
| 20260507023021 | 10 | 360 | 0.0 | 0.0 | 0.00 | 0.00 | 0.00 | 84 | 1010.5 |
| 20260507021520 | 11 | 360 | 0.0 | 0.0 | 0.00 | 0.00 | 0.00 | 83 | 1010.7 |
| 20260507020018 | 11 | 360 | 0.0 | 0.0 | 0.00 | 0.00 | 0.00 | 83 | 1010.6 |
| 20260507014526 | 11 | 360 | 0.0 | 0.0 | 0.00 | 0.00 | 0.00 | 83 | 1010.5 |
| 20260507013030 | 11 | 360 | 0.0 | 0.0 | 0.00 | 0.00 | 0.00 | 82 | 1010.4 |
| 20260507011514 | 12 | 360 | 0.0 | 0.0 | 0.00 | 0.00 | 0.00 | 81 | 1010.4 |
| 20260507010016 | 12 | 360 | 0.0 | 0.0 | 0.00 | 0.00 | 0.00 | 80 | 1010.2 |
| 20260507004509 | 12 | 360 | 0.0 | 0.0 | 0.00 | 0.00 | 0.00 | 80 | 1010.3 |
| 20260507003008 | 12 | 360 | 0.0 | 0.0 | 0.00 | 0.00 | 0.00 | 78 | 1010.3 |
| 20260507001510 | 12 | 360 | 0.0 | 0.0 | 0.00 | 0.00 | 0.00 | 78 | 1010.4 |
| 20260507000007 | 12 | 360 | 0.0 | 0.0 | 0.00 | 0.00 | 0.00 | 77 | 1010.4 |
| 20260506234506 | 12 | 360 | 0.0 | 0.0 | 0.00 | 0.00 | 0.00 | 77 | 1010.4 |
| 20260506233008 | 12 | 360 | 0.0 | 0.0 | 0.00 | 0.00 | 0.00 | 77 | 1010.4 |
| 20260506231504 | 12 | 360 | 0.0 | 0.0 | 0.00 | 0.00 | 0.00 | 76 | 1010.4 |
| 20260506230003 | 12 | 360 | 0.0 | 0.0 | 0.00 | 0.00 | 0.00 | 76 | 1010.4 |
| 20260506224502 | 13 | 360 | 0.0 | 0.0 | 0.00 | 0.00 | 0.00 | 76 | 1010.4 |
| 20260506223101 | 13 | 360 | 0.0 | 0.0 | 0.00 | 0.00 | 0.00 | 77 | 1010.4 |
| 20260506221611 | 13 | 360 | 0.0 | 0.0 | 0.00 | 0.00 | 0.00 | 76 | 1010.5 |
| 20260506220056 | 13 | 360 | 0.0 | 0.0 | 0.00 | 0.00 | 0.00 | 74 | 1010.5 |
| 20260506214557 | 14 | 360 | 0.0 | 0.0 | 0.00 | 0.00 | 1.24 | 73 | 1010.4 |
| 20260506213112 | 14 | 360 | 1.6 | 0.0 | 0.00 | 0.00 | 1.24 | 72 | 1010.3 |
| 20260506211553 | 14 | 360 | 0.0 | 0.0 | 0.00 | 0.00 | 1.24 | 72 | 1010.0 |
| 20260506210054 | 15 | 360 | 1.6 | 0.0 | 0.00 | 0.00 | 1.24 | 72 | 1009.8 |
| 20260506204553 | 15 | 360 | 0.0 | 0.0 | 0.00 | 0.00 | 1.24 | 72 | 1009.8 |
| 20260506203053 | 15 | 360 | 0.0 | 0.0 | 0.00 | 0.00 | 1.24 | 72 | 1009.6 |
| 20260506201553 | 15 | 360 | 1.6 | 0.0 | 0.00 | 0.00 | 1.24 | 72 | 1009.7 |
| 20260506200052 | 16 | 360 | 1.6 | 0.0 | 0.00 | 0.00 | 1.24 | 74 | 1009.5 |
| 20260506194551 | 16 | 360 | 1.6 | 0.0 | 0.00 | 0.00 | 1.24 | 75 | 1009.1 |
| 20260506193050 | 16 | 360 | 1.6 | 0.0 | 0.00 | 0.00 | 1.24 | 75 | 1009.1 |
| 20260506191550 | 16 | 360 | 0.0 | 0.0 | 0.00 | 0.00 | 1.24 | 75 | 1008.8 |
| 20260506190051 | 16 | 360 | 1.6 | 0.0 | 0.00 | 0.00 | 1.22 | 75 | 1008.7 |
| 20260506184552 | 16 | 360 | 1.6 | 0.0 | 0.00 | 0.00 | 1.22 | 77 | 1008.3 |
| 20260506183056 | 16 | 360 | 0.0 | 0.0 | 0.00 | 0.00 | 1.22 | 77 | 1008.4 |
| 20260506181612 | 17 | 360 | 0.0 | 0.0 | 0.00 | 0.00 | 1.22 | 76 | 1008.3 |
| 20260506180048 | 17 | 360 | 1.6 | 0.0 | 0.00 | 0.00 | 1.22 | 75 | 1008.1 |
| 20260506174547 | 17 | 360 | 1.6 | 0.0 | 0.00 | 0.00 | 1.22 | 76 | 1007.9 |
| 20260506173056 | 17 | 360 | 1.6 | 0.0 | 0.00 | 0.00 | 1.22 | 76 | 1007.8 |
| 20260506171547 | 17 | 360 | 1.6 | 0.0 | 0.00 | 0.00 | 1.22 | 76 | 1007.7 |
| 20260506170049 | 18 | 360 | 1.6 | 0.0 | 0.00 | 0.00 | 1.22 | 76 | 1007.6 |
| 20260506164548 | 18 | 360 | 1.6 | 0.0 | 0.00 | 0.00 | 1.22 | 76 | 1007.6 |
| 20260506163046 | 18 | 360 | 0.0 | 0.0 | 0.00 | 0.00 | 1.22 | 76 | 1007.6 |
| 20260506161547 | 18 | 360 | 1.6 | 0.0 | 0.00 | 0.00 | 1.22 | 76 | 1007.7 |
| 20260506160052 | 18 | 360 | 1.6 | 0.0 | 0.00 | 0.00 | 1.22 | 75 | 1007.7 |
| 20260506154544 | 18 | 360 | 1.6 | 0.0 | 0.00 | 0.00 | 1.19 | 74 | 1007.7 |
| 20260506153105 | 18 | 360 | 1.6 | 0.0 | 0.00 | 0.00 | 1.19 | 75 | 1007.7 |
| 20260506151545 | 18 | 360 | 1.6 | 0.0 | 0.00 | 0.00 | 1.19 | 74 | 1007.6 |